Overview Statistics Trail Chart Weather Telemetry Raw packets
 

This is the latest recevied weather packets stored in our database for station/object 4S6DRJ-13. If no packets are shown the sender has not sent any weather packets the latest 10 day(s).

<< 473 474 475 476 477 478 479 >>
Time Temp. Humidity Pressure Rain* Wind** Luminosity Snow
1787732446 30° C 75% 1009.4 hPa 0 mm 0.89 m/s, 320° 488 W/m² -
1787732385 30° C 75% 1009.3 hPa 0 mm 0.45 m/s, 300° 488 W/m² -
1787732324 30° C 75% 1009.3 hPa 0 mm 0.45 m/s, 225° 556 W/m² -
1787732264 30° C 75% 1009.4 hPa 0 mm 0.45 m/s, 249° 560 W/m² -
1787732203 30° C 75% 1009.3 hPa 0 mm 0.89 m/s, 116° 556 W/m² -
1787732142 30° C 76% 1009.5 hPa 0 mm 1.79 m/s, 179° 565 W/m² -
1787732080 30° C 76% 1009.6 hPa 0 mm 1.34 m/s, 247° 549 W/m² -
1787732019 30° C 75% 1009.5 hPa 0 mm 1.34 m/s, 223° 576 W/m² -
1787731958 30° C 76% 1009.3 hPa 0 mm 0.89 m/s, 134° 472 W/m² -
1787731897 30° C 76% 1009.3 hPa 0 mm 1.79 m/s, 205° 384 W/m² -
1787731837 30° C 76% 1009.4 hPa 0 mm 1.34 m/s, 245° 395 W/m² -
1787731775 29.44° C 76% 1009.4 hPa 0 mm 0.45 m/s, 294° 458 W/m² -
1787731714 30° C 76% 1009.4 hPa 0 mm 0.89 m/s, 57° 573 W/m² -
1787731653 30° C 75% 1009.4 hPa 0 mm 0.89 m/s, 184° 574 W/m² -
1787731592 29.44° C 76% 1009.6 hPa 0 mm 1.79 m/s, 189° 582 W/m² -
1787731532 30° C 76% 1009.4 hPa 0 mm 0.89 m/s, 152° 578 W/m² -
1787731470 30° C 75% 1009.5 hPa 0 mm 0.45 m/s, 236° 568 W/m² -
1787731409 30° C 75% 1009.6 hPa 0 mm 1.79 m/s, 178° 586 W/m² -
1787731348 30° C 74% 1009.6 hPa 0 mm 1.79 m/s, 228° 608 W/m² -
1787731287 30° C 73% 1009.6 hPa 0 mm 3.13 m/s, 239° 602 W/m² -
1787731226 30° C 74% 1009.6 hPa 0 mm 1.34 m/s, 215° 601 W/m² -
1787731165 30° C 75% 1009.6 hPa 0 mm 1.34 m/s, 228° 599 W/m² -
1787731104 30° C 75% 1009.8 hPa 0 mm 0.45 m/s, 169° 582 W/m² -
1787731043 30° C 75% 1009.5 hPa 0 mm 1.34 m/s, 237° 614 W/m² -
1787730982 30° C 75% 1009.5 hPa 0 mm 2.24 m/s, 210° 623 W/m² -

* Rain latest hour (hover to see other rain measurements)
** Current wind speed in m/s (hover to see current wind gust speed)